Hourly Data Report for April 14, 2020

TORONTO CITY
ONTARIO
Current Station Operator: ECCC - MSC

43°40'00.000" N
79°24'00.000" W
112.50 m
6158355
71508
XTO

Download Data

Hourly Data (April 2020)
Hourly Data Report for April 14, 2020
TIME
LST
Temp Definition
°C
Dew Point Definition
°C
Rel Hum Definition
%
Precip. Amount Definition
mm

Wind Dir Definition
10's deg

Wind Spd Definition
km/h
Visibility Definition
km
Stn Press Definition
kPa
Hmdx Definition


Wind Chill Definition


Weather Definition


00:00 3.9 -2.9 61 0.0       100.09     LegendNANA
01:00 3.6 -6.0 50 0.0       100.17     LegendNANA
02:00 2.8 -5.8 53 0.0       100.24     LegendNANA
03:00 0.8 -4.2 69 0.0       100.34     LegendNANA
04:00 0.8 -5.6 62 0.0       100.38     LegendNANA
05:00 1.1 -5.9 59 0.0       100.43     LegendNANA
06:00 0.7 -6.6 58 0.0       100.50     LegendNANA
07:00 1.9 -6.0 56 0.0       100.55     LegendNANA
08:00 2.8 -6.7 50 0.0       100.56     LegendNANA
09:00 4.1 -9.5 36 0.0       100.56     LegendNANA
10:00 5.2 -10.4 31 0.0       100.55     LegendNANA
11:00 5.9 -10.4 30 0.0       100.51     LegendNANA
12:00 5.1 -7.5 39 0.3       100.45     LegendNANA
13:00 6.9 -9.5 30 0.0       100.35     LegendNANA
14:00 6.5 -7.9 35 0.2       100.27     LegendNANA
15:00 5.7 -4.8 47 0.0       100.14     LegendNANA
16:00 4.6 -2.8 59 0.2       100.09     LegendNANA
17:00 6.2 -6.0 41 0.0       100.07     LegendNANA
18:00 3.5 -2.7 64 0.0       100.16     LegendNANA
19:00 4.0 -4.9 52 0.0       100.19     LegendNANA
20:00 1.9 -3.6 67 0.0       100.29     LegendNANA
21:00 1.6 -4.0 66 0.0       100.33     LegendNANA
22:00 1.6 -7.0 53 0.0       100.33     LegendNANA
23:00 1.1 -7.1 54 0.0       100.34     LegendNANA

Notes on Data Quality.

Legend

  • E = Estimated
  • M = Missing
  • NA = Not Available*
  • [empty] = Indicates an unobserved value
Date modified: